Home   Weather   Piešťany   Past weeks

Flag for Slovakia Past Weather in Piešťany, Slovakia — Yesterday and Last 2 Weeks

Now
48 °F

Overcast.


Feels Like: 46 °F
Forecast: 31 / 43 °F
Wind: 6 mph from Southeast

Location: Piestany

Current Time: Feb 24, 2017 at 2:36:49 am

Latest Report: Feb 24, 2017 at 2:00 am


Visibility: N/A

Pressure: 29.50 "Hg

Humidity: 71%

Dew Point: 39 °F

Location of PiešťanyLocation

Past Weather in Piešťany — Graph

°F

Piešťany Temperature Yesterday

Maximum temperature yesterday: 54 °F (at 1:30 pm)
Minimum temperature yesterday: 46 °F (at 7:30 am)
Average temperature yesterday: 50 °F

High & Low Weather Summary for the Past Weeks

 TemperatureHumidityPressure
High54 °F (Feb 23, 1:30 pm)100% (Feb 13, 4:00 am)30.63 "Hg (Feb 13, 4:00 am)
Low18 °F (Feb 14, 7:00 am)49% (Feb 12, 2:00 pm)29.50 "Hg (Feb 23, 11:30 pm)
Average35 °F84%30.27 "Hg
* Reported Feb 9 1:00 am — Feb 24 1:00 am, Piešťany, Weather by CustomWeather, © 2017

Note: Actual official high and low records may vary slightly from our data, if they occured in-between our weather recording intervals... More about our weather records

Advertising

Piešťany Weather History for the Previous 24 Hours

Scroll right to see more
 ConditionsComfort  
Time TempWeatherWind HumidityBarometerVisibility
1:00 am
Fri, Feb 24
48 °FOvercast.8 mph71%29.50 "HgN/A
12:30 am48 °FOvercast.7 mph71%29.50 "HgN/A
12:00 am48 °FOvercast.9 mph76%29.50 "HgN/A
11:30 pm
Thu, Feb 23
48 °FMostly cloudy.8 mph71%29.50 "HgN/A
11:00 pm48 °FMostly cloudy.8 mph76%29.53 "HgN/A
10:30 pm50 °FOvercast.6 mph71%29.53 "HgN/A
10:00 pm50 °FOvercast.10 mph71%29.53 "HgN/A
9:30 pm50 °FOvercast.9 mph71%29.53 "HgN/A
9:00 pm52 °FClear.10 mph67%29.53 "Hg10 mi
8:30 pm54 °FClear.9 mph63%29.53 "Hg10 mi
8:00 pm54 °FClear.8 mph63%29.53 "Hg10 mi
7:30 pm52 °FClear.8 mph72%29.56 "Hg10 mi
7:00 pm52 °FClear.9 mph72%29.56 "Hg10 mi
6:30 pm52 °FClear.8 mph67%29.59 "Hg10 mi
6:00 pm52 °FClear.6 mph67%29.59 "Hg10 mi
5:30 pm52 °FClear.6 mph67%29.59 "Hg10 mi
5:00 pm52 °FSunny.5 mph72%29.62 "Hg10 mi
4:30 pm52 °FSunny.6 mph72%29.62 "Hg10 mi
4:00 pm52 °FSunny.9 mph77%29.62 "Hg10 mi
3:30 pm52 °FSunny.10 mph72%29.65 "Hg10 mi
3:00 pm52 °FSunny.9 mph72%29.65 "Hg10 mi
2:30 pm54 °FPassing clouds.6 mph67%29.68 "HgN/A
2:00 pm54 °FPassing clouds.5 mph72%29.68 "HgN/A
1:30 pm54 °FScattered clouds.7 mph72%29.71 "HgN/A
1:00 pm52 °FBroken clouds.6 mph77%29.71 "HgN/A
12:30 pm52 °FMostly cloudy.5 mph77%29.71 "HgN/A
12:00 pm50 °FLight rain. Mostly cloudy.6 mph82%29.74 "HgN/A
11:30 am50 °FLight rain. Mostly cloudy.7 mph82%29.74 "HgN/A
11:00 am50 °FLight rain. Mostly cloudy.6 mph82%29.74 "HgN/A
10:30 am48 °FOvercast.1 mph87%29.74 "HgN/A
10:00 am48 °FOvercast.5 mph87%29.74 "HgN/A
9:30 am48 °FOvercast.3 mph87%29.74 "HgN/A
9:00 am46 °FLight rain. Overcast.3 mph93%29.74 "HgN/A
8:30 am46 °FLight rain. Overcast.3 mph93%29.74 "HgN/A
8:00 am46 °FOvercast.5 mph87%29.74 "HgN/A
7:30 am46 °FOvercast.3 mph87%29.74 "HgN/A
7:00 am48 °FLight rain. Overcast.7 mph82%29.74 "HgN/A
6:30 am48 °FLight rain. Overcast.10 mph82%29.74 "HgN/A
6:00 am48 °FOvercast.10 mph82%29.74 "HgN/A
5:30 am50 °FDrizzle. Overcast.12 mph71%29.74 "HgN/A
5:00 am50 °FOvercast.9 mph71%29.71 "HgN/A
4:30 am50 °FDrizzle. Overcast.10 mph71%29.71 "HgN/A
4:00 am50 °FOvercast.8 mph71%29.71 "HgN/A
3:30 am50 °FOvercast.8 mph71%29.71 "HgN/A
3:00 am50 °FOvercast.10 mph71%29.71 "HgN/A
2:30 am52 °FOvercast.10 mph67%29.71 "HgN/A
2:00 am52 °FOvercast.10 mph67%29.74 "HgN/A
Weather by CustomWeather, © 2017

See weather overviewHow to use our weather pages